This page uses our WeatherBlox Daily Observations layout. Learn more.

39.04372, -77.48749

Hourly Observations for December 7, 2017

Temp ( °F °C ) Dew Point ( °F °C ) Humidity (%) Winds ( mph kmh ) Pressure ( in mb ) Visibility ( mi km ) Precip ( " mm )
12:15 am 00:15 Clear 37 3 27 -3 65 W 3 6 30.09 1019 10 16 0.00 0.00
12:35 am 00:35 Clear 37 3 27 -3 65 W 5 7 30.12 1020 10 16 0.00 0.00
12:55 am 00:55 Clear 37 3 28 -2 70 NW 8 13 30.12 1020 10 16 0.00 0.00
1:15 am 01:15 Clear 37 3 28 -2 70 NW 8 13 30.09 1019 10 16 0.00 0.00
1:35 am 01:35 Clear 39 4 28 -2 65 NW 7 11 30.12 1020 10 16 0.00 0.00
1:55 am 01:55 Clear 39 4 28 -2 65 WNW 5 7 30.12 1020 10 16 0.00 0.00
2:15 am 02:15 Clear 39 4 28 -2 65 W 6 9 30.12 1020 10 16 0.00 0.00
2:35 am 02:35 Clear 39 4 28 -2 65 W 5 7 30.12 1020 10 16 0.00 0.00
2:55 am 02:55 Clear 39 4 28 -2 65 W 7 11 30.12 1020 10 16 0.00 0.00
3:15 am 03:15 Partly Cloudy 37 3 28 -2 70 W 5 7 30.12 1020 10 16 0.00 0.00
3:35 am 03:35 Mostly Cloudy 37 3 28 -2 70 W 3 6 30.12 1020 10 16 0.00 0.00
3:55 am 03:55 Cloudy 37 3 28 -2 70 W 5 7 30.09 1019 10 16 0.00 0.00
4:15 am 04:15 Mostly Cloudy 37 3 28 -2 70 WNW 7 11 30.09 1019 10 16 0.00 0.00
4:35 am 04:35 Partly Cloudy 37 3 28 -2 70 WNW 6 9 30.09 1019 10 16 0.00 0.00
4:55 am 04:55 Clear 37 3 28 -2 70 WNW 8 13 30.09 1019 10 16 0.00 0.00
5:15 am 05:15 Clear 37 3 27 -3 65 NW 7 11 30.09 1019 10 16 0.00 0.00
5:35 am 05:35 Partly Cloudy 36 2 27 -3 70 NW 7 11 30.12 1020 10 16 0.00 0.00
5:55 am 05:55 Clear 36 2 27 -3 70 WNW 6 9 30.12 1020 10 16 0.00 0.00
6:15 am 06:15 Clear 37 3 27 -3 65 NW 7 11 30.12 1020 10 16 0.00 0.00
6:35 am 06:35 Clear 36 2 27 -3 70 WNW 5 7 30.12 1020 10 16 0.00 0.00
6:55 am 06:55 Clear 36 2 27 -3 70 W 7 11 30.15 1021 10 16 0.00 0.00
7:15 am 07:15 Clear 37 3 27 -3 65 W 9 15 30.12 1020 10 16 0.00 0.00
7:35 am 07:35 Sunny 36 2 27 -3 70 W 8 13 30.15 1021 10 16 0.00 0.00
7:55 am 07:55 Partly Cloudy 37 3 27 -3 65 WNW 8 13 30.15 1021 10 16 0.00 0.00
8:15 am 08:15 Mostly Cloudy 41 5 28 -2 61 WNW 7 11 30.15 1021 10 16 0.00 0.00
8:35 am 08:35 Mostly Cloudy 43 6 28 -2 57 NW 8 13 30.15 1021 10 16 0.00 0.00
8:55 am 08:55 Mostly Cloudy 43 6 28 -2 57 NW 8 13 30.15 1021 10 16 0.00 0.00
9:15 am 09:15 Partly Cloudy 43 6 27 -3 53 NW 12 19 30.15 1021 10 16 0.00 0.00
9:35 am 09:35 Partly Cloudy 43 6 27 -3 53 WNW 10 17 30.15 1021 10 16 0.00 0.00
9:55 am 09:55 Partly Cloudy 45 7 27 -3 49 W 8 13 30.15 1021 10 16 0.00 0.00
10:15 am 10:15 Partly Cloudy 45 7 27 -3 49 WNW 9 15 30.15 1021 10 16 0.00 0.00
10:35 am 10:35 Partly Cloudy 45 7 25 -4 46 W 13 20 30.15 1021 10 16 0.00 0.00
10:55 am 10:55 Sunny 46 8 27 -3 46 WNW 12 19 30.15 1021 10 16 0.00 0.00
11:15 am 11:15 Partly Cloudy 46 8 27 -3 46 WNW 7 11 30.12 1020 10 16 0.00 0.00
11:35 am 11:35 Partly Cloudy 46 8 25 -4 43 W 9 15 30.12 1020 10 16 0.00 0.00
11:55 am 11:55 Partly Cloudy 48 9 27 -3 43 W 9 15 30.12 1020 10 16 0.00 0.00
12:15 pm 12:15 Mostly Cloudy 46 8 27 -3 46 W 9 15 30.12 1020 10 16 0.00 0.00
12:35 pm 12:35 Cloudy 46 8 27 -3 46 WNW 8 13 30.09 1019 10 16 0.00 0.00
12:55 pm 12:55 Cloudy 46 8 25 -4 43 W 10 17 30.09 1019 10 16 0.00 0.00
1:15 pm 13:15 Cloudy 48 9 25 -4 40 W 12 19 30.09 1019 10 16 0.00 0.00
1:35 pm 13:35 Cloudy 46 8 25 -4 43 W 10 17 30.09 1019 10 16 0.00 0.00
1:55 pm 13:55 Cloudy 46 8 25 -4 43 W 13 20 30.06 1018 10 16 0.00 0.00
2:15 pm 14:15 Cloudy 46 8 25 -4 43 W 9 15 30.06 1018 10 16 0.00 0.00
2:35 pm 14:35 Mostly Cloudy 48 9 25 -4 40 SW 6 9 30.06 1018 10 16 0.00 0.00
2:55 pm 14:55 Mostly Cloudy 46 8 23 -5 40 W 6 9 30.06 1018 10 16 0.00 0.00
3:15 pm 15:15 Cloudy 46 8 23 -5 40 Calm 30.06 1018 10 16 0.00 0.00
3:35 pm 15:35 Cloudy 46 8 25 -4 43 SW 3 6 30.06 1018 10 16 0.00 0.00
3:55 pm 15:55 Cloudy 46 8 25 -4 43 W 8 13 30.06 1018 10 16 0.00 0.00
4:15 pm 16:15 Cloudy 46 8 23 -5 40 SW 3 6 30.06 1018 10 16 0.00 0.00
4:35 pm 16:35 Cloudy 45 7 27 -3 49 Calm 30.06 1018 10 16 0.00 0.00
4:55 pm 16:55 Cloudy 45 7 25 -4 46 W 3 6 30.06 1018 10 16 0.00 0.00
5:15 pm 17:15 Cloudy 45 7 27 -3 49 W 5 7 30.06 1018 10 16 0.00 0.00
5:35 pm 17:35 Cloudy 45 7 27 -3 49 Calm 30.06 1018 10 16 0.00 0.00
5:55 pm 17:55 Partly Cloudy 43 6 25 -4 49 Calm 30.06 1018 10 16 0.00 0.00
6:15 pm 18:15 Partly Cloudy 43 6 27 -3 53 Calm 30.06 1018 10 16 0.00 0.00
6:35 pm 18:35 Mostly Cloudy 39 4 27 -3 61 W 3 6 30.09 1019 10 16 0.00 0.00
6:55 pm 18:55 Mostly Cloudy 39 4 28 -2 65 WNW 3 6 30.09 1019 10 16 0.00 0.00
7:15 pm 19:15 Mostly Cloudy 39 4 27 -3 61 Calm 30.09 1019 10 16 0.00 0.00
7:35 pm 19:35 Cloudy 37 3 28 -2 70 W 3 6 30.09 1019 10 16 0.00 0.00
7:55 pm 19:55 Partly Cloudy 37 3 28 -2 70 WSW 3 6 30.09 1019 10 16 0.00 0.00
8:15 pm 20:15 Partly Cloudy 36 2 30 -1 81 SW 3 6 30.09 1019 10 16 0.00 0.00
8:35 pm 20:35 Partly Cloudy 36 2 28 -2 75 Calm 30.09 1019 10 16 0.00 0.00
8:55 pm 20:55 Partly Cloudy 37 3 28 -2 70 Calm 30.09 1019 10 16 0.00 0.00
9:15 pm 21:15 Mostly Cloudy 36 2 30 -1 81 NNW 3 6 30.09 1019 10 16 0.00 0.00
9:35 pm 21:35 Partly Cloudy 36 2 30 -1 81 NNW 9 15 30.09 1019 10 16 0.00 0.00
9:55 pm 21:55 Clear 39 4 30 -1 70 NNW 7 11 30.09 1019 10 16 0.00 0.00
10:15 pm 22:15 Partly Cloudy 41 5 30 -1 66 N 3 6 30.09 1019 10 16 0.00 0.00
10:35 pm 22:35 Mostly Cloudy 41 5 30 -1 66 NNW 5 7 30.12 1020 10 16 0.00 0.00
10:55 pm 22:55 Cloudy 41 5 30 -1 66 NW 10 17 30.12 1020 10 16 0.00 0.00
11:15 pm 23:15 Mostly Cloudy 41 5 30 -1 66 NW 8 13 30.12 1020 10 16 0.00 0.00
11:35 pm 23:35 Partly Cloudy 41 5 28 -2 61 NNW 6 9 30.12 1020 10 16 0.00 0.00
11:55 pm 23:55 Clear 39 4 28 -2 65 NW 9 15 30.09 1019 10 16 0.00 0.00